Hourly Data Report for October 10, 2014

All times are specified in Local Standard Time (LST). Add 1 hour to adjust for Daylight Saving Time where and when it is observed.

SAINT JOHN A
NEW BRUNSWICK

45°18'58.000" N
65°53'24.000" W
108.80 m
8104901
71609
YSJ

Download Data

Hourly Data (October 2014)
Hourly Data Report for October 10, 2014
Temp Definition
°C
Dew Point Temp Definition
°C
Rel Hum Definition
%
Wind Dir Definition
10's deg

Wind Spd Definition
km/h
Visibility Definition
km
Stn Press Definition
kPa
Hmdx Definition


Wind Chill Definition


Weather Definition


TIME
00:00 Legend Double Dagger 9.7 5.1 73 24 14 24.1 99.79     LegendNANA
01:00 Legend Double Dagger 9.4 2.5 62 25 21 24.1 99.78     LegendNANA
02:00 Legend Double Dagger 8.8 2.0 62 26 14 24.1 99.81     Clear
03:00 Legend Double Dagger 7.8 2.1 67 25 13 24.1 99.85     LegendNANA
04:00 Legend Double Dagger 7.2 0.9 64 27 20 24.1 99.84     LegendNANA
05:00 Legend Double Dagger 7.1 0.6 63 27 19 24.1 99.89     Clear
06:00 Legend Double Dagger 7.2 -0.3 59 27 18 24.1 99.93     LegendNANA
07:00 Legend Double Dagger 7.1 0.1 61 23 13 24.1 100.00     LegendNANA
08:00 Legend Double Dagger 8.9 1.6 60 25 19 24.1 100.03     Mainly Clear
09:00 Legend Double Dagger 10.1 1.5 55 26 16 24.1 100.07     LegendNANA
10:00 Legend Double Dagger 11.8 1.5 49 25 16 24.1 100.06     LegendNANA
11:00 Legend Double Dagger 12.9 2.2 48 25 18 24.1 100.09     Clear
12:00 Legend Double Dagger 13.2 2.5 48 23 25 24.1 100.09     LegendNANA
13:00 Legend Double Dagger 13.5 3.1 49 21 28 24.1 100.05     LegendNANA
14:00 Legend Double Dagger 13.3 2.6 48 22 35 24.1 100.02     Clear
15:00 Legend Double Dagger 13.6 3.7 51 23 25 24.1 100.03     LegendNANA
16:00 Legend Double Dagger 13.0 3.7 53 22 26 24.1 100.06     LegendNANA
17:00 Legend Double Dagger 11.7 5.2 64 22 24 24.1 100.12     Mainly Clear
18:00 Legend Double Dagger 10.0 4.8 70 22 16 24.1 100.19     LegendNANA
19:00 Legend Double Dagger 10.1 6.5 78 21 13 24.1 100.28     LegendNANA
20:00 Legend Double Dagger 10.6 7.3 80 22 17 24.1 100.32     Mainly Clear
21:00 Legend Double Dagger 9.5 7.3 86 24 12 24.1 100.36     LegendNANA
22:00 Legend Double Dagger 9.8 6.4 79 26 9 24.1 100.40     LegendNANA
23:00 Legend Double Dagger 8.7 4.9 77 27 10 24.1 100.46     Mainly Clear

Notes on Data Quality.

Legend

  • E = Estimated
  • M = Missing
  • NA = Not Available
  • ‡ = Partner data that is not subject to review by the National Climate Archives
Date modified: